| time (UTC) | temp F | wind direction | speed knots | gust knots | rain 1hr in | rain 24hr in | rain mn in | humidity % | barometer mb |
| 20260504220108 | 59 | 162 | 5.2 | 7.0 | 0.00 | 0.00 | 0.00 | 41 | 1011.7 |
| 20260504215603 | 60 | 167 | 3.5 | 7.0 | 0.00 | 0.00 | 0.00 | 37 | 1011.6 |
| 20260504215101 | 60 | 85 | 1.7 | 2.6 | 0.00 | 0.00 | 0.00 | 37 | 1011.8 |
| 20260504214557 | 61 | 162 | 2.6 | 3.5 | 0.00 | 0.00 | 0.00 | 37 | 1011.2 |
| 20260504214053 | 61 | 155 | 5.2 | 6.1 | 0.00 | 0.00 | 0.00 | 37 | 1011.3 |
| 20260504213550 | 62 | 111 | 0.9 | 0.9 | 0.00 | 0.00 | 0.00 | 37 | 1011.2 |
| 20260504213047 | 62 | 115 | 5.2 | 7.0 | 0.00 | 0.00 | 0.00 | 36 | 1011.0 |
| 20260504212543 | 64 | 161 | 3.5 | 6.1 | 0.00 | 0.00 | 0.00 | 36 | 1010.9 |
| 20260504212040 | 64 | 156 | 2.6 | 2.6 | 0.00 | 0.00 | 0.00 | 33 | 1011.1 |
| 20260504211537 | 64 | 66 | 3.5 | 3.5 | 0.00 | 0.00 | 0.00 | 31 | 1011.1 |
| 20260504211034 | 65 | 130 | 4.3 | 6.1 | 0.00 | 0.00 | 0.00 | 29 | 1010.7 |
| 20260504210531 | 65 | 109 | 1.7 | 5.2 | 0.00 | 0.00 | 0.00 | 31 | 1010.7 |
| 20260504210028 | 65 | 81 | 3.5 | 6.1 | 0.00 | 0.00 | 0.00 | 30 | 1011.0 |
| 20260504205526 | 64 | 134 | 1.7 | 3.5 | 0.00 | 0.00 | 0.00 | 33 | 1010.7 |
| 20260504205023 | 64 | 169 | 2.6 | 3.5 | 0.00 | 0.00 | 0.00 | 33 | 1010.7 |
| 20260504204521 | 63 | 165 | 2.6 | 3.5 | 0.00 | 0.00 | 0.00 | 34 | 1010.9 |
| 20260504204020 | 63 | 109 | 4.3 | 7.0 | 0.00 | 0.00 | 0.00 | 35 | 1011.0 |
| 20260504203518 | 63 | 35 | 1.7 | 1.7 | 0.00 | 0.00 | 0.00 | 35 | 1011.0 |
| 20260504203015 | 64 | 91 | 3.5 | 5.2 | 0.00 | 0.00 | 0.00 | 32 | 1011.2 |
| 20260504202510 | 65 | 105 | 3.5 | 3.5 | 0.00 | 0.00 | 0.00 | 31 | 1011.2 |
| 20260504202007 | 66 | 103 | 1.7 | 2.6 | 0.00 | 0.00 | 0.00 | 31 | 1011.3 |
| 20260504201504 | 66 | 39 | 1.7 | 2.6 | 0.00 | 0.00 | 0.00 | 29 | 1011.2 |
| 20260504201002 | 66 | 99 | 4.3 | 6.1 | 0.00 | 0.00 | 0.00 | 29 | 1011.2 |
| 20260504200458 | 66 | 106 | 4.3 | 5.2 | 0.00 | 0.00 | 0.00 | 30 | 1011.3 |
| 20260504195955 | 66 | 58 | 2.6 | 3.5 | 0.00 | 0.00 | 0.00 | 30 | 1011.5 |
| 20260504195451 | 65 | 78 | 3.5 | 6.1 | 0.00 | 0.00 | 0.00 | 29 | 1011.2 |
| 20260504194948 | 64 | 90 | 0.9 | 1.7 | 0.00 | 0.00 | 0.00 | 30 | 1011.3 |
| 20260504194444 | 64 | 131 | 2.6 | 3.5 | 0.00 | 0.00 | 0.00 | 31 | 1011.5 |
| 20260504193940 | 64 | 78 | 1.7 | 1.7 | 0.00 | 0.00 | 0.00 | 32 | 1011.3 |
| 20260504193437 | 63 | 324 | 0.9 | 1.7 | 0.00 | 0.00 | 0.00 | 32 | 1011.5 |
| 20260504192936 | 63 | 195 | 2.6 | 5.2 | 0.00 | 0.00 | 0.00 | 32 | 1011.7 |
| 20260504192432 | 63 | 184 | 4.3 | 6.1 | 0.00 | 0.00 | 0.00 | 33 | 1011.3 |
| 20260504191931 | 63 | 249 | 3.5 | 3.5 | 0.00 | 0.00 | 0.00 | 32 | 1011.3 |
| 20260504191429 | 63 | 260 | 4.3 | 5.2 | 0.00 | 0.00 | 0.00 | 32 | 1011.5 |
| 20260504190924 | 63 | 254 | 5.2 | 7.0 | 0.00 | 0.00 | 0.00 | 32 | 1011.5 |
| 20260504190420 | 63 | 242 | 4.3 | 5.2 | 0.00 | 0.00 | 0.00 | 34 | 1011.7 |
| 20260504185917 | 63 | 228 | 5.2 | 6.1 | 0.00 | 0.00 | 0.00 | 33 | 1011.6 |
| 20260504185414 | 63 | 293 | 3.5 | 3.5 | 0.00 | 0.00 | 0.00 | 33 | 1011.7 |
| 20260504184910 | 63 | 257 | 5.2 | 7.0 | 0.00 | 0.00 | 0.00 | 32 | 1011.6 |
| 20260504184406 | 63 | 283 | 5.2 | 7.0 | 0.00 | 0.00 | 0.00 | 34 | 1011.6 |
| 20260504183902 | 63 | 265 | 5.2 | 7.8 | 0.00 | 0.00 | 0.00 | 34 | 1011.3 |
| 20260504183400 | 64 | 273 | 7.8 | 9.6 | 0.00 | 0.00 | 0.00 | 33 | 1011.5 |
| 20260504182857 | 65 | 286 | 7.0 | 7.8 | 0.00 | 0.00 | 0.00 | 33 | 1011.9 |
| 20260504182354 | 66 | 255 | 7.8 | 9.6 | 0.00 | 0.00 | 0.00 | 33 | 1011.7 |
| 20260504181851 | 69 | 31 | 1.7 | 1.7 | 0.00 | 0.00 | 0.00 | 25 | 1011.3 |
| 20260504181348 | 69 | 307 | 2.6 | 2.6 | 0.00 | 0.00 | 0.00 | 25 | 1011.6 |
| 20260504180847 | 69 | 297 | 4.3 | 5.2 | 0.00 | 0.00 | 0.00 | 27 | 1011.8 |
| 20260504180345 | 69 | 341 | 1.7 | 2.6 | 0.00 | 0.00 | 0.00 | 28 | 1011.7 |
| 20260504175843 | 69 | 235 | 3.5 | 5.2 | 0.00 | 0.00 | 0.00 | 29 | 1011.7 |
| 20260504175339 | 68 | 268 | 2.6 | 3.5 | 0.00 | 0.00 | 0.00 | 30 | 1011.8 |
| 20260504174838 | 68 | 276 | 3.5 | 5.2 | 0.00 | 0.00 | 0.00 | 27 | 1011.8 |
| 20260504174335 | 68 | 25 | 0.9 | 0.9 | 0.00 | 0.00 | 0.00 | 29 | 1012.1 |
| 20260504173832 | 67 | 252 | 1.7 | 1.7 | 0.00 | 0.00 | 0.00 | 29 | 1012.3 |
| 20260504173328 | 66 | 321 | 0.9 | 1.7 | 0.00 | 0.00 | 0.00 | 33 | 1012.1 |
| 20260504172826 | 66 | 302 | 2.6 | 2.6 | 0.00 | 0.00 | 0.00 | 31 | 1012.3 |
| 20260504172322 | 66 | 187 | 3.5 | 5.2 | 0.00 | 0.00 | 0.00 | 33 | 1012.3 |
| 20260504171818 | 67 | 249 | 4.3 | 5.2 | 0.00 | 0.00 | 0.00 | 32 | 1012.3 |
| 20260504171315 | 67 | 269 | 1.7 | 2.6 | 0.00 | 0.00 | 0.00 | 34 | 1012.3 |
| 20260504170812 | 65 | 31 | 0.0 | 0.0 | 0.00 | 0.00 | 0.00 | 36 | 1012.4 |
| 20260504170309 | 65 | 301 | 2.6 | 3.5 | 0.00 | 0.00 | 0.00 | 35 | 1012.8 |
| 20260504160227 | 61 | 286 | 2.6 | 2.6 | 0.00 | 0.00 | 0.00 | 38 | 1012.9 |
| 20260504150653 | 55 | 23 | 0.0 | 0.0 | 0.00 | 0.00 | 0.00 | 40 | 1013.5 |
| 20260504150150 | 54 | 23 | 0.9 | 0.9 | 0.00 | 0.00 | 0.00 | 42 | 1013.6 |
| 20260504141119 | 51 | 22 | 0.0 | 0.9 | 0.00 | 0.00 | 0.00 | 42 | 1013.5 |
| 20260504140616 | 51 | 54 | 0.0 | 0.0 | 0.00 | 0.00 | 0.00 | 41 | 1013.9 |
| 20260504140111 | 51 | 38 | 0.0 | 0.0 | 0.00 | 0.00 | 0.00 | 40 | 1013.7 |
| 20260504130540 | 45 | 42 | 0.0 | 0.0 | 0.00 | 0.00 | 0.00 | 49 | 1013.6 |
| 20260504110427 | 43 | 46 | 0.9 | 0.9 | 0.00 | 0.00 | 0.00 | 49 | 1013.9 |
| 20260504100344 | 44 | 47 | 1.7 | 2.6 | 0.00 | 0.00 | 0.00 | 44 | 1013.4 |
| 20260504081737 | 45 | 51 | 1.7 | 1.7 | 0.00 | 0.00 | 0.00 | 42 | 1013.3 |
| 20260504081233 | 45 | 50 | 0.9 | 0.9 | 0.00 | 0.00 | 0.00 | 42 | 1013.3 |
| 20260504080730 | 45 | 50 | 0.9 | 0.9 | 0.00 | 0.00 | 0.00 | 42 | 1013.1 |
| 20260504080226 | 45 | 50 | 0.9 | 0.9 | 0.00 | 0.00 | 0.00 | 42 | 1013.6 |
| 20260504070154 | 47 | 50 | 0.0 | 0.0 | 0.00 | 0.00 | 0.00 | 37 | 1013.4 |
| 20260504060120 | 49 | 49 | 1.7 | 2.6 | 0.00 | 0.00 | 0.00 | 35 | 1013.5 |
| 20260504050548 | 52 | 50 | 1.7 | 1.7 | 0.00 | 0.00 | 0.00 | 32 | 1013.9 |
| 20260504045541 | 52 | 43 | 1.7 | 1.7 | 0.00 | 0.00 | 0.00 | 33 | 1013.9 |
| 20260504045037 | 53 | 39 | 1.7 | 1.7 | 0.00 | 0.00 | 0.00 | 32 | 1013.9 |
| 20260504044535 | 53 | 54 | 1.7 | 2.6 | 0.00 | 0.00 | 0.00 | 32 | 1014.1 |
| 20260504044031 | 53 | 67 | 3.5 | 5.2 | 0.00 | 0.00 | 0.00 | 31 | 1013.9 |
| 20260504043528 | 52 | 56 | 0.0 | 1.7 | 0.00 | 0.00 | 0.00 | 32 | 1013.9 |
| 20260504043026 | 52 | 52 | 0.9 | 0.9 | 0.00 | 0.00 | 0.00 | 33 | 1014.0 |
| 20260504042523 | 52 | 45 | 1.7 | 1.7 | 0.00 | 0.00 | 0.00 | 32 | 1014.1 |
| 20260504042020 | 53 | 41 | 1.7 | 1.7 | 0.00 | 0.00 | 0.00 | 33 | 1014.1 |
| 20260504041515 | 53 | 41 | 0.0 | 0.0 | 0.00 | 0.00 | 0.00 | 32 | 1014.0 |
| 20260504041012 | 54 | 39 | 1.7 | 1.7 | 0.00 | 0.00 | 0.00 | 31 | 1013.7 |
| 20260504040509 | 55 | 32 | 1.7 | 1.7 | 0.00 | 0.00 | 0.00 | 30 | 1014.0 |
| 20260504040006 | 55 | 44 | 1.7 | 2.6 | 0.00 | 0.00 | 0.00 | 29 | 1013.7 |
| 20260504035503 | 55 | 48 | 1.7 | 3.5 | 0.00 | 0.00 | 0.00 | 29 | 1013.6 |
| 20260504034959 | 55 | 49 | 0.0 | 0.9 | 0.00 | 0.00 | 0.00 | 29 | 1013.6 |
| 20260504034457 | 55 | 50 | 3.5 | 5.2 | 0.00 | 0.00 | 0.00 | 29 | 1013.4 |
| 20260504033954 | 55 | 46 | 1.7 | 2.6 | 0.00 | 0.00 | 0.00 | 29 | 1013.7 |
| 20260504033451 | 56 | 33 | 0.0 | 0.9 | 0.00 | 0.00 | 0.00 | 29 | 1013.5 |
| 20260504032949 | 56 | 64 | 2.6 | 5.2 | 0.00 | 0.00 | 0.00 | 29 | 1013.5 |
| 20260504032445 | 56 | 66 | 3.5 | 5.2 | 0.00 | 0.00 | 0.00 | 29 | 1013.5 |
| 20260504031942 | 56 | 57 | 4.3 | 5.2 | 0.00 | 0.00 | 0.00 | 29 | 1013.6 |
| 20260504031439 | 56 | 44 | 5.2 | 6.1 | 0.00 | 0.00 | 0.00 | 28 | 1013.5 |
| 20260504030936 | 55 | 39 | 1.7 | 2.6 | 0.00 | 0.00 | 0.00 | 30 | 1013.7 |
| 20260504030433 | 56 | 35 | 0.9 | 2.6 | 0.00 | 0.00 | 0.00 | 29 | 1013.9 |
| 20260504025929 | 56 | 40 | 2.6 | 2.6 | 0.00 | 0.00 | 0.00 | 28 | 1013.7 |
| 20260504025426 | 57 | 41 | 2.6 | 2.6 | 0.00 | 0.00 | 0.00 | 28 | 1013.7 |
| 20260504024923 | 57 | 42 | 1.7 | 2.6 | 0.00 | 0.00 | 0.00 | 27 | 1013.9 |
| 20260504024420 | 57 | 41 | 0.9 | 0.9 | 0.00 | 0.00 | 0.00 | 27 | 1013.7 |
| 20260504023917 | 57 | 52 | 0.0 | 0.9 | 0.00 | 0.00 | 0.00 | 27 | 1013.6 |
| 20260504023413 | 57 | 40 | 1.7 | 2.6 | 0.00 | 0.00 | 0.00 | 28 | 1013.3 |
| 20260504022909 | 57 | 38 | 1.7 | 1.7 | 0.00 | 0.00 | 0.00 | 30 | 1013.4 |
| 20260504022406 | 59 | 43 | 0.0 | 0.0 | 0.00 | 0.00 | 0.00 | 24 | 1013.6 |
| 20260504021902 | 60 | 45 | 0.0 | 0.0 | 0.00 | 0.00 | 0.00 | 23 | 1013.6 |
| 20260504021359 | 59 | 59 | 1.7 | 2.6 | 0.00 | 0.00 | 0.00 | 23 | 1013.5 |
| 20260504020856 | 60 | 45 | 0.0 | 0.0 | 0.00 | 0.00 | 0.00 | 23 | 1013.7 |
| 20260504020353 | 60 | 46 | 0.9 | 0.9 | 0.00 | 0.00 | 0.00 | 24 | 1013.4 |
| 20260504015849 | 61 | 53 | 0.0 | 0.0 | 0.00 | 0.00 | 0.00 | 25 | 1013.5 |
| 20260504015345 | 62 | 62 | 0.9 | 0.9 | 0.00 | 0.00 | 0.00 | 24 | 1013.7 |
| 20260504014842 | 62 | 53 | 0.9 | 0.9 | 0.00 | 0.00 | 0.00 | 23 | 1013.7 |
| 20260504014337 | 62 | 36 | 0.0 | 0.0 | 0.00 | 0.00 | 0.00 | 24 | 1013.6 |
| 20260504013836 | 62 | 47 | 0.0 | 0.0 | 0.00 | 0.00 | 0.00 | 22 | 1013.9 |
| 20260504013333 | 63 | 57 | 0.9 | 1.7 | 0.00 | 0.00 | 0.00 | 23 | 1013.7 |
| 20260504012830 | 63 | 46 | 0.0 | 0.0 | 0.00 | 0.00 | 0.00 | 23 | 1013.7 |
| 20260504012327 | 64 | 53 | 0.0 | 0.0 | 0.00 | 0.00 | 0.00 | 22 | 1014.0 |
| 20260504011825 | 64 | 49 | 0.0 | 0.0 | 0.00 | 0.00 | 0.00 | 24 | 1013.7 |
| 20260504011321 | 64 | 48 | 0.0 | 0.0 | 0.00 | 0.00 | 0.00 | 24 | 1013.6 |
| 20260504010817 | 65 | 47 | 0.0 | 0.0 | 0.00 | 0.00 | 0.00 | 24 | 1013.6 |
| 20260504010313 | 65 | 48 | 0.0 | 0.0 | 0.00 | 0.00 | 0.00 | 21 | 1013.7 |
| 20260504005809 | 65 | 45 | 0.0 | 0.0 | 0.00 | 0.00 | 0.00 | 22 | 1013.9 |
| 20260504005306 | 65 | 51 | 0.0 | 0.0 | 0.00 | 0.00 | 0.00 | 19 | 1013.9 |
| 20260504004804 | 66 | 48 | 0.0 | 0.0 | 0.00 | 0.00 | 0.00 | 23 | 1014.0 |
| 20260504004301 | 66 | 48 | 0.0 | 0.0 | 0.00 | 0.00 | 0.00 | 22 | 1014.1 |
| 20260504003758 | 66 | 48 | 0.0 | 0.0 | 0.00 | 0.00 | 0.00 | 19 | 1014.0 |
| 20260504003255 | 66 | 53 | 0.0 | 0.0 | 0.00 | 0.00 | 0.00 | 18 | 1014.2 |
| 20260504002751 | 66 | 49 | 0.0 | 0.0 | 0.00 | 0.00 | 0.00 | 18 | 1014.2 |
| 20260504002248 | 66 | 87 | 0.0 | 0.0 | 0.00 | 0.00 | 0.00 | 17 | 1014.1 |
| 20260504001746 | 66 | 330 | 0.9 | 1.7 | 0.00 | 0.00 | 0.00 | 18 | 1014.0 |
| 20260504001243 | 67 | 32 | 0.0 | 0.9 | 0.00 | 0.00 | 0.00 | 20 | 1014.2 |
| 20260504000739 | 67 | 9 | 0.0 | 0.9 | 0.00 | 0.00 | 0.00 | 18 | 1014.1 |
| 20260504000236 | 67 | 323 | 0.9 | 1.7 | 0.00 | 0.00 | 0.00 | 17 | 1014.1 |
| 20260503235735 | 67 | 52 | 0.9 | 1.7 | 0.00 | 0.00 | 0.00 | 16 | 1014.2 |
| 20260503235231 | 67 | 195 | 1.7 | 1.7 | 0.00 | 0.00 | 0.00 | 16 | 1014.2 |
| 20260503234729 | 67 | 320 | 0.0 | 0.9 | 0.00 | 0.00 | 0.00 | 18 | 1014.1 |
| 20260503234227 | 67 | 341 | 1.7 | 1.7 | 0.00 | 0.00 | 0.00 | 18 | 1014.2 |
| 20260503233724 | 68 | 253 | 2.6 | 2.6 | 0.00 | 0.00 | 0.00 | 17 | 1014.6 |
| 20260503233219 | 68 | 258 | 2.6 | 2.6 | 0.00 | 0.00 | 0.00 | 18 | 1014.6 |
| 20260503232717 | 68 | 51 | 0.9 | 1.7 | 0.00 | 0.00 | 0.00 | 18 | 1014.2 |
| 20260503232214 | 68 | 82 | 1.7 | 3.5 | 0.00 | 0.00 | 0.00 | 18 | 1014.6 |
| 20260503231712 | 68 | 238 | 0.9 | 1.7 | 0.00 | 0.00 | 0.00 | 18 | 1014.6 |
| 20260503231208 | 68 | 229 | 3.5 | 5.2 | 0.00 | 0.00 | 0.00 | 16 | 1014.6 |
| 20260503230705 | 68 | 210 | 4.3 | 5.2 | 0.00 | 0.00 | 0.00 | 16 | 1014.7 |
| 20260503230202 | 68 | 101 | 1.7 | 1.7 | 0.00 | 0.00 | 0.00 | 16 | 1014.7 |
| 20260503225659 | 69 | 163 | 1.7 | 1.7 | 0.00 | 0.00 | 0.00 | 16 | 1014.7 |
| 20260503225159 | 68 | 44 | 0.0 | 0.0 | 0.00 | 0.00 | 0.00 | 16 | 1014.7 |
| 20260503224657 | 69 | 259 | 7.0 | 7.8 | 0.00 | 0.00 | 0.00 | 16 | 1014.8 |
| 20260503224155 | 69 | 231 | 3.5 | 5.2 | 0.00 | 0.00 | 0.00 | 17 | 1014.8 |
| 20260503223652 | 69 | 220 | 5.2 | 6.1 | 0.00 | 0.00 | 0.00 | 16 | 1014.8 |
| 20260503223149 | 70 | 295 | 3.5 | 3.5 | 0.00 | 0.00 | 0.00 | 16 | 1015.1 |
| 20260503222646 | 70 | 289 | 1.7 | 2.6 | 0.00 | 0.00 | 0.00 | 16 | 1014.8 |
| 20260503222143 | 70 | 336 | 1.7 | 2.6 | 0.00 | 0.00 | 0.00 | 17 | 1015.1 |
| 20260503221642 | 70 | 24 | 0.0 | 0.9 | 0.00 | 0.00 | 0.00 | 19 | 1015.2 |
| 20260503221139 | 69 | 224 | 5.2 | 7.0 | 0.00 | 0.00 | 0.00 | 17 | 1015.2 |
| 20260503220635 | 70 | 199 | 4.3 | 6.1 | 0.00 | 0.00 | 0.00 | 16 | 1015.2 |